Multibeam Report for FD180001


Ship Name: Fugro Discovery
Chief Scientist:
Source Organization: Fugro
Start Date: 2018-02-16
End Date: 2018-07-26


View ISO Metadata

Visit the full NCEI Bathymetry Viewer


Multibeam Bathymetry

Cruise Details

Project: Transit
Instrument: Kongsberg EM122

Data Quality

Number of Files: 117
Number of Records: 176680
BATHYMETRY DATA Quantity Percentage
Number of Beams 76325760 100%
Number of Good Beams 69736146 91.37%
Number of Zero Beams 26 0.0%
Number of Flagged Beams 6589588 8.63%

Navigation Totals

Total Time: 310.2776 hours
Total Track Length: 5406.0118 km
Average Speed: 17.423 km/hr (9.4077 knots)

Cruise Bounds

Northern Extent: 59.037106
Southern Extent: 38.73403
Western Extent: -71.50066
Eastern Extent: -7.639457

Limits

Minimum Sonar Depth 0 Maximum Sonar Depth 10.2107
Minimum Altitude 719.4828 Maximum Altitude 5431.8838
Minimum Depth 651.6577 Maximum Depth 5577.2061

File Information

Full Resolution Bathymetry as collected (raw): 115

Files File Size Description
0001_20180711_190414_FD_EM122.all.mb58.gz 338.92MB Kongsberg multibeam vendor format
0002_20180711_220413_FD_EM122.all.mb58.gz 141.75MB Kongsberg multibeam vendor format
0003_20180711_232323_FD_EM122.all.mb58.gz 302.37MB Kongsberg multibeam vendor format
0004_20180712_022330_FD_EM122.all.mb58.gz 293.33MB Kongsberg multibeam vendor format
0005_20180712_052331_FD_EM122.all.mb58.gz 288.81MB Kongsberg multibeam vendor format
0006_20180712_082326_FD_EM122.all.mb58.gz 281.80MB Kongsberg multibeam vendor format
0007_20180712_112332_FD_EM122.all.mb58.gz 219.38MB Kongsberg multibeam vendor format
0008_20180712_134652_FD_EM122.all.mb58.gz 4.21MB Kongsberg multibeam vendor format
0009_20180712_134939_FD_EM122.all.mb58.gz 247.13MB Kongsberg multibeam vendor format
0010_20180712_164938_FD_EM122.all.mb58.gz 225.71MB Kongsberg multibeam vendor format
0011_20180712_194942_FD_EM122.all.mb58.gz 224.71MB Kongsberg multibeam vendor format
0012_20180712_224937_FD_EM122.all.mb58.gz 225.56MB Kongsberg multibeam vendor format
0013_20180713_014946_FD_EM122.all.mb58.gz 233.33MB Kongsberg multibeam vendor format
0014_20180713_044942_FD_EM122.all.mb58.gz 282.92MB Kongsberg multibeam vendor format
0015_20180713_074940_FD_EM122.all.mb58.gz 284.61MB Kongsberg multibeam vendor format
0016_20180713_104934_FD_EM122.all.mb58.gz 281.99MB Kongsberg multibeam vendor format
0017_20180713_134941_FD_EM122.all.mb58.gz 284.60MB Kongsberg multibeam vendor format
0018_20180713_164937_FD_EM122.all.mb58.gz 272.60MB Kongsberg multibeam vendor format
0019_20180713_194944_FD_EM122.all.mb58.gz 271.35MB Kongsberg multibeam vendor format
0020_20180713_224936_FD_EM122.all.mb58.gz 273.28MB Kongsberg multibeam vendor format
0021_20180714_014942_FD_EM122.all.mb58.gz 279.90MB Kongsberg multibeam vendor format
0022_20180714_044937_FD_EM122.all.mb58.gz 240.63MB Kongsberg multibeam vendor format
0023_20180714_074940_FD_EM122.all.mb58.gz 223.75MB Kongsberg multibeam vendor format
0024_20180714_104935_FD_EM122.all.mb58.gz 5.70MB Kongsberg multibeam vendor format
0025_20180714_105407_FD_EM122.all.mb58.gz 202.00MB Kongsberg multibeam vendor format
0026_20180714_135358_FD_EM122.all.mb58.gz 201.28MB Kongsberg multibeam vendor format
0027_20180714_165358_FD_EM122.all.mb58.gz 210.82MB Kongsberg multibeam vendor format
0028_20180714_195402_FD_EM122.all.mb58.gz 219.20MB Kongsberg multibeam vendor format
0029_20180714_225400_FD_EM122.all.mb58.gz 221.19MB Kongsberg multibeam vendor format
0030_20180715_015358_FD_EM122.all.mb58.gz 219.89MB Kongsberg multibeam vendor format
0031_20180715_045356_FD_EM122.all.mb58.gz 219.14MB Kongsberg multibeam vendor format
0032_20180715_075400_FD_EM122.all.mb58.gz 220.99MB Kongsberg multibeam vendor format
0033_20180715_105404_FD_EM122.all.mb58.gz 29.37MB Kongsberg multibeam vendor format
0044_20180716_025251_FD_EM122.all.mb58.gz 217.21MB Kongsberg multibeam vendor format
0045_20180716_055301_FD_EM122.all.mb58.gz 218.10MB Kongsberg multibeam vendor format
0046_20180716_085259_FD_EM122.all.mb58.gz 173.64MB Kongsberg multibeam vendor format
0047_20180716_111545_FD_EM122.all.mb58.gz 217.32MB Kongsberg multibeam vendor format
0048_20180716_141530_FD_EM122.all.mb58.gz 219.47MB Kongsberg multibeam vendor format
0049_20180716_171530_FD_EM122.all.mb58.gz 218.00MB Kongsberg multibeam vendor format
0050_20180716_201538_FD_EM122.all.mb58.gz 217.56MB Kongsberg multibeam vendor format
0051_20180716_231530_FD_EM122.all.mb58.gz 248.33MB Kongsberg multibeam vendor format
0052_20180717_021526_FD_EM122.all.mb58.gz 220.73MB Kongsberg multibeam vendor format
0053_20180717_051535_FD_EM122.all.mb58.gz 218.00MB Kongsberg multibeam vendor format
0054_20180717_081529_FD_EM122.all.mb58.gz 216.31MB Kongsberg multibeam vendor format
0055_20180717_111535_FD_EM122.all.mb58.gz 36.78MB Kongsberg multibeam vendor format
0056_20180717_114628_FD_EM122.all.mb58.gz 213.80MB Kongsberg multibeam vendor format
0057_20180717_144612_FD_EM122.all.mb58.gz 217.40MB Kongsberg multibeam vendor format
0058_20180717_174607_FD_EM122.all.mb58.gz 219.69MB Kongsberg multibeam vendor format
0059_20180717_204610_FD_EM122.all.mb58.gz 217.47MB Kongsberg multibeam vendor format
0060_20180717_234604_FD_EM122.all.mb58.gz 219.40MB Kongsberg multibeam vendor format
0061_20180718_024608_FD_EM122.all.mb58.gz 220.94MB Kongsberg multibeam vendor format
0062_20180718_054602_FD_EM122.all.mb58.gz 222.66MB Kongsberg multibeam vendor format
0063_20180718_084606_FD_EM122.all.mb58.gz 223.66MB Kongsberg multibeam vendor format
0064_20180718_114607_FD_EM122.all.mb58.gz 152.02MB Kongsberg multibeam vendor format
0065_20180718_135337_FD_EM122.all.mb58.gz 214.23MB Kongsberg multibeam vendor format
0066_20180718_165330_FD_EM122.all.mb58.gz 213.99MB Kongsberg multibeam vendor format
0067_20180718_195324_FD_EM122.all.mb58.gz 212.91MB Kongsberg multibeam vendor format
0068_20180718_225327_FD_EM122.all.mb58.gz 212.11MB Kongsberg multibeam vendor format
0069_20180719_015327_FD_EM122.all.mb58.gz 212.05MB Kongsberg multibeam vendor format
0070_20180719_045324_FD_EM122.all.mb58.gz 212.88MB Kongsberg multibeam vendor format
0071_20180719_075331_FD_EM122.all.mb58.gz 212.72MB Kongsberg multibeam vendor format
0072_20180719_105321_FD_EM122.all.mb58.gz 74.01MB Kongsberg multibeam vendor format
0073_20180719_115613_FD_EM122.all.mb58.gz 297.6KB Kongsberg multibeam vendor format
0074_20180719_115628_FD_EM122.all.mb58.gz 212.03MB Kongsberg multibeam vendor format
0075_20180719_145622_FD_EM122.all.mb58.gz 212.43MB Kongsberg multibeam vendor format
0076_20180719_175627_FD_EM122.all.mb58.gz 211.58MB Kongsberg multibeam vendor format
0077_20180719_205624_FD_EM122.all.mb58.gz 210.75MB Kongsberg multibeam vendor format
0078_20180719_235622_FD_EM122.all.mb58.gz 211.44MB Kongsberg multibeam vendor format
0079_20180720_025626_FD_EM122.all.mb58.gz 212.46MB Kongsberg multibeam vendor format
0080_20180720_055626_FD_EM122.all.mb58.gz 212.52MB Kongsberg multibeam vendor format
0081_20180720_085620_FD_EM122.all.mb58.gz 212.24MB Kongsberg multibeam vendor format
0082_20180720_115623_FD_EM122.all.mb58.gz 211.83MB Kongsberg multibeam vendor format
0083_20180720_145621_FD_EM122.all.mb58.gz 171.96MB Kongsberg multibeam vendor format
0084_20180720_172139_FD_EM122.all.mb58.gz 213.96MB Kongsberg multibeam vendor format
0085_20180720_202128_FD_EM122.all.mb58.gz 215.03MB Kongsberg multibeam vendor format
0086_20180720_232131_FD_EM122.all.mb58.gz 216.73MB Kongsberg multibeam vendor format
0087_20180721_022120_FD_EM122.all.mb58.gz 218.70MB Kongsberg multibeam vendor format
0088_20180721_052133_FD_EM122.all.mb58.gz 217.04MB Kongsberg multibeam vendor format
0089_20180721_082124_FD_EM122.all.mb58.gz 215.16MB Kongsberg multibeam vendor format
0090_20180721_112124_FD_EM122.all.mb58.gz 188.68MB Kongsberg multibeam vendor format
0091_20180721_135835_FD_EM122.all.mb58.gz 212.01MB Kongsberg multibeam vendor format
0092_20180721_165822_FD_EM122.all.mb58.gz 211.34MB Kongsberg multibeam vendor format
0093_20180721_195820_FD_EM122.all.mb58.gz 213.55MB Kongsberg multibeam vendor format
0094_20180721_225817_FD_EM122.all.mb58.gz 210.15MB Kongsberg multibeam vendor format
0095_20180722_015818_FD_EM122.all.mb58.gz 209.39MB Kongsberg multibeam vendor format
0096_20180722_045817_FD_EM122.all.mb58.gz 209.61MB Kongsberg multibeam vendor format
0097_20180722_075813_FD_EM122.all.mb58.gz 209.87MB Kongsberg multibeam vendor format
0098_20180722_105813_FD_EM122.all.mb58.gz 209.74MB Kongsberg multibeam vendor format
0099_20180722_135811_FD_EM122.all.mb58.gz 209.33MB Kongsberg multibeam vendor format
0100_20180722_165809_FD_EM122.all.mb58.gz 118.18MB Kongsberg multibeam vendor format
0101_20180722_183946_FD_EM122.all.mb58.gz 1.46MB Kongsberg multibeam vendor format
0102_20180722_184102_FD_EM122.all.mb58.gz 209.42MB Kongsberg multibeam vendor format
0103_20180722_214114_FD_EM122.all.mb58.gz 209.05MB Kongsberg multibeam vendor format
0104_20180723_004114_FD_EM122.all.mb58.gz 209.10MB Kongsberg multibeam vendor format
0105_20180723_034113_FD_EM122.all.mb58.gz 209.03MB Kongsberg multibeam vendor format
0106_20180723_064104_FD_EM122.all.mb58.gz 209.37MB Kongsberg multibeam vendor format
0107_20180723_094108_FD_EM122.all.mb58.gz 209.26MB Kongsberg multibeam vendor format
0108_20180723_124108_FD_EM122.all.mb58.gz 8.17MB Kongsberg multibeam vendor format
0109_20180723_152416_FD_EM122.all.mb58.gz 209.56MB Kongsberg multibeam vendor format
0110_20180723_182421_FD_EM122.all.mb58.gz 209.50MB Kongsberg multibeam vendor format
0111_20180723_212413_FD_EM122.all.mb58.gz 209.77MB Kongsberg multibeam vendor format
0112_20180724_002417_FD_EM122.all.mb58.gz 174.26MB Kongsberg multibeam vendor format
0113_20180724_051926_FD_EM122.all.mb58.gz 210.09MB Kongsberg multibeam vendor format
0114_20180724_081935_FD_EM122.all.mb58.gz 210.09MB Kongsberg multibeam vendor format
0115_20180724_111935_FD_EM122.all.mb58.gz 210.29MB Kongsberg multibeam vendor format
0116_20180724_141939_FD_EM122.all.mb58.gz 21.47MB Kongsberg multibeam vendor format
0117_20180724_154154_FD_EM122.all.mb58.gz 211.12MB Kongsberg multibeam vendor format
0118_20180724_184154_FD_EM122.all.mb58.gz 211.73MB Kongsberg multibeam vendor format
0119_20180724_214148_FD_EM122.all.mb58.gz 212.69MB Kongsberg multibeam vendor format
0120_20180725_004156_FD_EM122.all.mb58.gz 48.33MB Kongsberg multibeam vendor format
0131_20180725_223535_FD_EM122.all.mb58.gz 217.80MB Kongsberg multibeam vendor format
0132_20180726_013542_FD_EM122.all.mb58.gz 219.69MB Kongsberg multibeam vendor format
0133_20180726_043534_FD_EM122.all.mb58.gz 223.85MB Kongsberg multibeam vendor format
0134_20180726_073538_FD_EM122.all.mb58.gz 226.60MB Kongsberg multibeam vendor format
0135_20180726_103540_FD_EM122.all.mb58.gz 155.65MB Kongsberg multibeam vendor format

Metadata Files: 2

Files File Size Description
FD180001-1.xlsx 26.3KB Provider supplied metadata
FD180001.xlsx 13.6KB Provider supplied metadata